Flag for U.S.A. Weather past 2 weeks in Charleston, South Carolina, U.S.A.

Now
85 °F

Broken clouds.


Feels Like: 91 °F
Forecast: 76 / 85 °F
Wind: 13 mph from East

Location: Charleston Air Force Base Reporting Station

Current Time: Jul 31, 2014 at 10:18:41 AM

Latest Report: Jul 31, 2014 at 9:56 AM


Visibility: 10 mi

Pressure: 30.02 "Hg

Humidity: 65%

Dew point: 72 °F

Location of CharlestonLocation

Historic Weather in Charleston — Graph

°F

Charleston temperature yesterday

Maximum temperature yesterday: 88 °F (at 2:56 PM)
Minimum temperature yesterday: 73 °F (at 2:56 AM)
Average temperature yesterday: 81 °F

Past Weeks' High & Low Weather Summary

 TemperatureHumidityPressure
High95 °F (Jul 28, 1:56 PM)94% (Jul 23, 5:56 AM)30.14 "Hg (Jul 23, 5:56 AM)
Low72 °F (Jul 19, 3:56 AM)39% (Jul 29, 2:56 PM)29.79 "Hg (Jul 28, 4:56 PM)
Average82 °F73%29.99 "Hg
* Reported Jul 16 8:56 AM — Jul 31 8:56 AM, Charleston, Weather by CustomWeather, © 2014

Note: Actual official high and low records may vary slightly from our data, if they occured in-between our weather recording intervals... More about our weather records

Advertising

Charleston weather history for previous 24 hours

 ConditionsComfort  
Time TempWeatherWind HumidityBarometerVisibility
8:56 AM
Jul 31
83 °FPartly sunny.8 mph70%30.03 "Hg10 mi
7:56 AM79 °FPartly sunny.5 mph77%30.03 "Hg10 mi
6:56 AM77 °FPassing clouds.6 mph82%30.02 "Hg10 mi
5:56 AM77 °FPassing clouds.7 mph82%30.01 "Hg10 mi
4:56 AM76 °FMostly cloudy.6 mph85%30.00 "Hg10 mi
3:56 AM76 °FPassing clouds.6 mph85%30.00 "Hg10 mi
2:56 AM77 °FPassing clouds.6 mph82%30.01 "Hg10 mi
1:56 AM77 °FPassing clouds.3 mph82%30.01 "Hg10 mi
12:56 AM77 °FPassing clouds.3 mph79%30.02 "Hg10 mi
11:56 PM
Jul 30
79 °FPassing clouds.3 mph77%30.02 "Hg10 mi
10:56 PM79 °FPassing clouds.6 mph77%30.03 "Hg10 mi
9:56 PM80 °FPassing clouds.6 mph71%30.02 "Hg10 mi
8:56 PM82 °FPartly sunny.7 mph67%30.01 "Hg10 mi
7:56 PM83 °FPartly sunny.7 mph63%30.00 "Hg10 mi
6:56 PM84 °FPartly sunny.10 mph59%29.98 "Hg10 mi
5:56 PM85 °FBroken clouds.13 mph55%29.98 "Hg10 mi
4:56 PM88 °FScattered clouds.13 mph52%29.98 "Hg10 mi
3:56 PM88 °FScattered clouds.14 mph46%29.98 "Hg10 mi
2:56 PM88 °FBroken clouds.16 mph48%30.00 "Hg10 mi
1:56 PM87 °FBroken clouds.13 mph55%30.00 "Hg10 mi
12:56 PM87 °FBroken clouds.13 mph55%30.01 "Hg10 mi
11:56 AM84 °FBroken clouds.7 mph65%30.02 "Hg10 mi
10:56 AM84 °FBroken clouds.7 mph65%30.01 "Hg10 mi
Weather by CustomWeather, © 2014

See weather overviewHow to use our weather pages